Retour au catalogue

FENGYUN 1C DEB

ActifSSO
NORAD 31738·DEBRIS·🇨🇳 China

Lancé May 10, 1999 depuis Taiyuan Satellite Launch Center

Loading…

Prochains Passages (prochaines 24 heures)

TLE

FraisSource: Space-Track

Époque: Sep 12, 2026, 22:48 UTC

1 31738U 99025CEM 26255.95042582  .00001086  00000-0  67853-3 0  9999
2 31738  99.3422 327.9916 0305410  87.3898 276.2175 13.86123449660559

Suivez FENGYUN 1C DEB en temps réel avec AllMySat

Download on the App Store